Theta_e
304 303 303 304 303 305 305 304 303 303 308 308 308 307 305 303 303 303 303 302 302 303 306 307 307 307 307 307 307 306 305 304 304 303 303 306 308 308 307 310 310 311 311 314
303 303 304 306 304 304 304 303 304 305 307 309 307 308 306 304 303 302 302 301 302 303 304 304 306 307 307 306 307 305 304 304 304 303 303 304 305 306 306 307 309 309 308 309
303 305 306 305 303 304 301 303 304 305 305 307 308 309 308 306 303 302 302 302 302 302 301 302 302 307 306 306 307 306 304 304 304 303 303 303 303 305 304 305 307 307 306 308
303 303 304 303 303 304 303 303 304 304 304 306 308 310 308 304 303 303 302 301 301 299 301 302 302 306 306 306 306 306 305 304 304 304 303 302 303 304 304 304 305 304 305 306
302 301 301 301 302 304 304 303 305 305 305 306 306 307 307 304 303 302 301 301 300 300 300 302 305 306 306 306 306 305 305 304 304 303 303 302 302 303 303 304 304 304 304 304
302 302 302 302 303 304 304 306 307 306 307 307 307 307 308 307 304 302 302 301 301 301 302 303 304 305 305 306 306 306 305 304 303 303 302 302 302 302 302 303 303 303 303 304
303 302 302 304 305 304 306 313 309 311 307 309 309 307 308 305 304 303 302 301 301 301 301 302 305 305 305 305 305 306 305 304 304 303 302 302 301 301 302 302 302 302 302 303
301 299 302 302 303 304 304 312 307 310 314 311 305 308 307 305 304 303 302 301 302 302 301 303 305 305 305 305 306 305 305 304 304 303 302 302 301 301 301 301 301 301 301 302
304 302 302 301 302 304 307 305 306 310 309 307 304 307 304 303 303 302 302 302 302 302 301 302 305 305 305 305 305 305 305 305 304 303 302 301 301 301 300 300 300 300 300 301
306 301 302 301 301 303 308 305 300 299 299 304 309 307 304 303 302 302 302 302 302 301 301 302 303 305 304 304 304 305 305 305 304 303 302 302 301 301 300 300 300 299 299 300
305 300 302 301 302 303 302 303 305 303 305 307 309 306 303 302 301 301 301 302 301 300 300 302 303 304 304 304 304 304 304 304 304 303 302 302 302 301 300 300 299 299 298 299
309 300 301 303 302 301 303 305 303 297 298 304 305 303 302 301 301 301 301 302 300 300 300 302 303 303 304 304 304 304 303 303 304 303 302 302 302 301 300 300 299 298 298 298
305 302 298 303 303 301 303 302 301 294 300 306 300 301 303 302 302 302 301 300 301 301 300 301 302 303 303 303 303 303 303 303 303 303 302 302 302 301 300 300 299 298 297 298
306 305 300 301 301 298 296 300 292 293 295 298 303 304 302 300 300 300 300 301 300 300 300 301 301 302 302 302 303 303 303 303 303 303 302 302 302 301 300 300 299 298 297 298
302 301 298 301 309 302 301 303 300 294 295 297 299 302 301 299 298 299 300 301 301 301 300 300 300 302 303 303 303 302 302 302 302 303 302 302 302 301 300 300 299 297 296 297
303 301 303 301 304 306 304 302 303 300 299 301 299 297 297 297 298 300 300 302 301 300 301 301 301 301 301 301 302 302 302 302 302 302 302 302 302 301 300 300 298 297 296 296
302 299 299 304 303 300 300 301 303 303 301 299 298 298 299 301 301 300 300 300 300 300 300 300 300 300 300 300 300 300 301 302 302 301 301 302 302 301 300 300 298 297 296 296
302 301 298 299 300 294 300 304 302 303 303 302 302 301 301 301 299 299 298 298 298 299 299 299 299 299 299 299 299 299 299 299 299 300 301 301 301 300 300 299 298 297 295 296
302 300 296 296 302 301 305 302 301 300 304 302 301 300 300 300 299 299 298 298 298 298 298 299 299 299 299 299 299 299 299 299 299 299 299 300 301 300 300 299 298 297 295 295
304 302 300 298 298 299 303 302 301 299 304 301 300 299 299 298 298 297 298 298 298 298 298 298 298 297 297 297 297 297 298 298 298 298 298 299 301 301 300 300 297 296 295 295
303 301 299 296 300 303 303 301 301 302 300 300 299 298 298 298 297 297 298 298 298 298 297 296 296 297 298 297 298 299 298 298 299 298 298 299 300 300 301 297 295 295 295 295
303 299 299 298 296 302 303 302 302 299 299 298 297 297 297 297 297 297 297 297 297 296 296 294 294 294 295 293 295 295 295 295 296 299 301 299 300 300 297 295 298 299 295 294
303 301 303 301 302 300 299 299 298 298 297 297 296 296 296 296 295 295 295 295 294 294 294 293 293 293 292 292 292 293 293 293 294 295 297 297 297 296 295 297 296 294 294 294
303 303 302 303 301 300 299 298 297 296 296 296 295 295 295 295 294 294 294 294 294 294 294 293 292 291 292 291 291 292 292 292 292 293 294 293 293 295 294 294 294 294 293 293
302 303 302 300 300 299 298 297 296 296 295 295 296 296 295 295 295 294 294 294 294 293 293 291 287 289 291 291 290 290 291 291 291 291 292 293 293 292 292 292 292 292 291 292
298 301 301 300 298 298 297 296 296 296 296 296 295 295 294 293 293 292 291 291 290 290 289 287 286 286 289 290 289 289 290 290 289 290 290 290 291 292 292 292 291 291 291 291
Wind_Speed
5 9 5 5 8 6 9 7 8 5 8 10 6 7 7 6 8 8 7 7 6 5 6 11 12 13 17 19 20 18 23 27 30 30 29 28 27 28 29 28 28 27 27 27
7 7 7 3 10 13 10 11 5 3 6 12 7 6 6 7 6 9 9 6 6 3 6 9 12 13 16 17 19 18 21 23 26 26 26 22 22 24 25 26 27 29 27 27
8 1 6 7 9 11 6 7 4 7 5 7 9 3 4 1 6 6 5 6 5 6 6 8 15 12 13 15 16 18 18 20 22 24 23 25 22 24 27 29 28 27 27 26
7 6 8 8 6 5 4 3 2 4 4 5 4 3 5 6 6 6 7 6 6 6 5 10 14 13 11 13 14 16 16 16 20 23 22 24 24 24 23 24 24 25 25 25
5 6 8 9 3 3 2 2 3 3 1 2 4 4 5 8 6 6 6 5 6 5 7 8 14 11 8 9 11 14 14 14 18 23 21 22 22 21 21 23 24 26 27 25
4 3 4 1 3 2 4 2 6 5 3 2 5 6 4 9 9 6 4 7 7 6 7 10 9 9 7 5 9 10 10 12 16 21 20 20 22 21 22 23 25 26 27 27
6 4 5 3 3 5 1 5 3 3 3 5 3 2 5 4 12 9 9 7 6 6 6 7 7 6 8 6 4 5 6 8 11 15 16 17 19 20 20 20 21 24 27 26
4 3 5 7 3 1 3 5 5 6 3 3 5 2 4 1 8 8 9 8 6 6 5 6 7 3 4 6 2 2 2 4 6 10 13 15 17 18 19 18 18 19 21 22
5 1 0 4 3 2 2 3 3 5 3 3 1 2 6 4 6 7 8 6 6 6 5 7 8 4 1 4 5 4 2 2 3 7 10 13 14 15 18 19 17 18 20 20
5 5 3 1 2 4 1 3 4 4 2 3 4 3 4 7 8 7 7 7 7 6 7 8 9 8 6 5 5 6 6 5 3 5 8 11 14 14 16 19 17 18 19 17
5 4 2 3 1 3 2 1 5 4 3 4 1 5 5 9 8 9 8 8 9 9 8 9 11 11 10 8 8 6 7 8 9 8 6 8 11 13 15 16 15 16 19 16
3 5 3 1 1 3 2 3 5 4 4 1 3 5 3 8 8 7 8 8 8 8 9 13 12 12 14 13 11 10 9 11 13 10 8 8 9 11 15 15 15 15 18 15
5 2 3 5 5 4 2 2 4 4 3 4 5 5 0 2 2 3 5 8 7 8 7 12 14 15 18 16 15 15 14 14 14 14 11 11 10 10 14 14 15 15 16 16
7 4 5 6 5 5 3 3 2 5 4 3 5 3 2 3 6 8 8 6 7 7 8 10 15 18 17 19 19 20 18 14 13 17 16 15 14 13 14 13 13 15 15 16
4 4 3 3 3 3 4 5 7 5 5 5 3 6 6 6 8 6 6 5 4 6 6 7 12 15 14 18 24 22 19 15 15 19 20 20 17 17 16 15 14 15 15 16
2 1 2 2 4 5 4 7 11 8 2 7 3 6 8 11 6 7 7 5 9 7 6 8 17 19 21 19 17 16 17 21 22 23 24 23 21 19 19 19 18 15 14 15
3 4 3 1 2 3 7 9 10 5 4 6 6 8 4 5 8 10 8 7 7 7 6 8 15 20 22 21 21 22 25 28 29 28 28 28 27 24 22 22 20 18 15 14
5 4 3 2 2 0 6 3 9 7 3 10 3 4 4 3 6 8 6 5 6 6 7 15 20 23 24 27 28 28 29 28 28 30 36 35 32 28 25 26 24 21 17 15
5 4 2 4 3 5 2 1 6 6 3 5 7 5 4 4 3 1 10 11 6 11 16 20 24 28 29 29 31 32 29 29 31 33 34 37 37 31 29 28 28 22 18 17
5 5 4 2 3 6 5 3 3 5 2 2 8 6 5 5 4 4 11 17 22 25 26 27 29 28 29 33 34 34 33 34 33 33 35 34 39 36 33 32 28 20 18 18
3 2 5 2 2 6 6 4 3 4 5 4 8 6 7 5 3 4 14 17 20 19 24 27 28 24 25 31 31 29 28 28 34 36 39 38 35 40 36 27 19 19 18 21
6 5 3 2 1 6 3 2 4 6 5 5 5 5 7 6 6 7 11 14 17 19 22 24 24 24 26 31 29 28 28 34 40 39 36 39 38 33 26 22 22 31 24 20
2 6 5 7 5 1 5 7 6 6 6 4 6 5 7 6 5 5 5 11 14 15 17 20 20 21 24 27 27 27 31 34 37 35 29 28 23 21 24 27 24 17 18 18
2 4 3 3 5 9 9 7 6 6 7 5 7 5 6 4 3 2 3 7 9 13 14 19 23 24 25 27 27 25 28 28 29 30 28 25 28 26 19 12 12 13 18 14
4 6 5 5 6 10 6 5 6 6 7 6 4 2 3 4 0 1 4 9 12 14 15 18 23 23 24 26 27 27 25 25 26 27 27 26 22 22 24 17 14 14 14 15
2 3 4 4 3 5 4 4 6 5 2 2 1 5 10 11 9 10 10 10 12 15 18 22 24 26 29 30 30 33 28 27 28 27 25 24 23 24 25 22 19 15 14 14
Wind_Direction
13 71 76 283 268 178 109 101 102 101 129 88 124 122 135 125 106 108 108 108 100 110 112 102 100 86 73 61 58 58 44 40 28 28 30 33 34 32 35 34 32 31 24 22
33 52 318 17 43 88 100 108 112 112 130 114 151 144 170 157 151 147 143 127 124 105 64 61 88 83 74 62 57 57 52 44 35 29 32 34 36 31 29 29 34 30 24 23
112 52 53 66 35 78 37 112 156 149 115 65 113 8 194 210 119 130 135 153 154 116 80 46 69 103 86 68 62 58 53 42 40 31 28 30 32 30 22 21 24 24 23 23
64 335 68 57 64 15 76 332 36 108 95 162 191 223 233 180 166 149 157 152 91 98 84 61 61 110 87 74 68 54 57 49 40 32 33 32 31 26 20 15 15 17 19 20
255 31 42 56 349 19 169 348 42 54 113 72 178 92 271 166 194 186 190 130 128 126 104 68 85 110 98 84 68 51 54 49 40 29 30 30 30 25 18 16 12 12 13 20
97 38 54 355 321 21 140 68 30 38 57 24 228 148 231 190 180 170 164 156 162 129 84 79 68 82 70 79 67 59 55 50 32 26 24 24 24 20 17 15 11 7 6 10
12 21 336 30 32 20 87 60 15 10 2 219 246 82 243 205 162 160 154 165 158 141 106 85 86 56 15 33 84 66 64 52 31 26 24 18 19 18 16 13 8 4 2 5
137 342 2 333 62 212 51 131 150 188 196 264 315 259 269 101 114 131 147 160 162 139 129 117 135 68 38 351 245 341 75 50 28 22 22 17 12 11 10 9 7 4 360 359
129 98 290 54 45 82 297 55 157 105 356 44 232 342 5 130 131 129 147 152 161 157 163 157 176 185 326 318 276 272 259 332 357 10 12 13 10 4 0 359 359 358 357 357
162 106 227 212 19 22 115 149 61 6 116 272 293 214 219 189 173 151 156 168 183 191 189 192 193 205 220 252 297 249 257 280 287 323 338 349 354 352 351 351 349 350 351 352
110 98 261 72 80 186 17 46 53 112 127 166 241 256 227 183 173 167 190 189 192 200 205 209 217 224 227 239 251 243 245 250 250 266 286 316 335 341 341 342 341 340 344 346
103 120 119 175 11 8 78 152 135 121 257 235 149 275 330 148 159 168 196 207 213 210 213 223 227 233 229 233 231 230 249 265 259 246 261 289 312 327 332 328 332 330 336 340
170 79 76 353 349 3 100 55 115 119 77 195 137 265 258 42 100 305 267 254 241 224 237 239 240 241 235 232 233 239 250 258 253 237 255 275 288 302 320 310 316 321 327 329
91 102 154 182 197 136 149 193 163 116 118 189 220 252 130 344 336 313 312 278 246 237 238 239 246 259 264 247 242 247 248 243 251 230 249 262 274 290 302 291 294 309 315 317
93 113 102 219 149 156 159 170 178 177 182 161 196 195 254 268 270 266 266 231 236 253 268 278 269 271 268 252 248 253 250 250 255 236 244 253 263 280 282 272 275 294 303 308
30 146 132 344 210 217 233 224 195 212 198 266 261 288 223 261 270 280 282 15 24 28 32 23 14 4 354 325 297 273 256 260 256 245 245 250 255 258 265 260 264 277 289 295
94 119 94 228 20 32 313 218 182 179 193 185 192 236 340 330 53 75 50 34 22 3 359 347 345 345 343 340 335 319 304 298 279 257 255 247 250 244 256 255 254 268 277 280
114 96 96 174 55 7 243 289 183 166 282 205 41 114 56 113 138 86 58 25 356 341 336 334 335 333 331 326 321 317 315 310 305 294 278 267 250 243 246 243 251 260 271 269
124 111 71 135 211 287 268 55 149 167 50 43 110 78 44 341 133 102 16 357 326 324 330 325 324 322 320 317 318 311 311 315 316 308 299 283 261 245 236 243 248 257 267 269
78 87 112 112 157 213 239 235 143 93 149 80 111 83 60 56 52 282 336 353 1 7 16 14 7 357 349 343 339 332 322 318 311 311 308 298 271 254 246 246 242 255 268 268
100 34 145 167 229 283 246 208 118 134 203 112 97 103 73 84 174 288 7 29 17 10 9 8 5 358 352 357 356 353 349 344 330 318 315 307 287 270 249 236 246 265 264 262
154 143 194 101 104 284 239 98 205 147 90 131 100 94 88 80 60 33 24 15 17 7 6 6 5 360 356 357 357 349 345 339 336 330 326 303 291 266 231 235 266 269 249 246
166 180 177 176 213 324 23 105 79 119 124 119 100 96 102 84 72 47 17 14 6 3 -0 359 355 348 348 349 350 341 337 338 339 335 334 326 297 264 249 260 258 249 272 267
243 155 151 111 85 102 97 89 98 100 110 114 116 119 108 116 106 84 19 357 347 345 351 352 347 341 334 334 331 326 330 331 331 334 335 341 335 314 309 308 298 300 284 269
201 149 152 66 106 89 80 103 117 101 114 94 76 134 148 130 253 342 348 341 342 347 352 343 334 323 315 319 320 318 320 326 325 323 321 324 324 337 345 328 316 304 293 291
341 178 163 176 134 113 129 122 105 89 88 234 314 17 55 52 46 36 17 8 358 342 338 336 332 325 320 319 320 319 322 323 318 312 313 314 311 309 301 300 303 296 299 308